Weather History for Kokomo, IN

Change the Weather History Date:

Wednesday, May 8, 2013

  Actual Average (KGUS) Record (KGUS)
Temperature  
Mean Temperature 66 °F -  
Max Temperature 78 °F 68 °F 89 °F (2007)
Min Temperature 53 °F 50 °F 46 °F (2006)
Growing Degree Days 16 (Base 50)    
Moisture  
Dew Point 53 °F    
Average Humidity 66    
Maximum Humidity 100    
Minimum Humidity 36    
Precipitation  
Precipitation 0.00 in - - ()
Sea Level Pressure  
Sea Level Pressure 29.98 in    
Wind  
Wind Speed 4 mph (NE)    
Max Wind Speed 9 mph    
Max Gust Speed -    
Visibility 9 miles    
Events      
Averages and records for this station are not official NWS values.
T = Trace of Precipitation, MM = Missing Value Source: NWS Daily Summary

Daily Weather History Graph

Daily Weather History Graph

Search for Another Location

Airport:

Trip Planner

Search our weather history database for the weather conditions in past years. The results will help you decide how hot, cold, wet, or windy it might be!

Date:

Astronomy

May. 08, 2013 Rise Set
Actual Time 5:34 AM CDT 7:47 PM CDT
Civil Twilight 5:04 AM CDT 8:17 PM CDT
Nautical Twilight 4:27 AM CDT 8:55 PM CDT
Astronomical Twilight 3:46 AM CDT 9:36 PM CDT
Moon 4:42 AM CDT (5/8) 6:44 PM CDT (5/8)
Length of Visible Light 15h 13m
Length of Day
14h 12m
Waning Crescent, 2% of the Moon is Illuminated
May 8
Waning Crescent
May 9
New
May 17
First Quarter
May 24
Full
May 31
Last Quarter

Hourly Weather History & Observations

Time (CDT) Temp. Dew Point Humidity Pressure Visibility Wind Dir Wind Speed Gust Speed Precip Events Conditions
12:15 AM 59.0 °F 51.8 °F 77% 29.98 in 10.0 mi North 4.6 mph - N/A   Clear
12:35 AM 57.2 °F 51.8 °F 82% 29.98 in 10.0 mi Calm Calm - N/A   Partly Cloudy
12:55 AM 57.2 °F 53.6 °F 88% 29.97 in 10.0 mi North 3.5 mph - N/A   Mostly Cloudy
1:15 AM 57.2 °F 51.8 °F 82% 29.97 in 10.0 mi NNE 4.6 mph - N/A   Partly Cloudy
1:35 AM 55.4 °F 51.8 °F 88% 29.97 in 10.0 mi Calm Calm - N/A   Clear
1:55 AM 57.2 °F 51.8 °F 82% 29.97 in 10.0 mi NNE 4.6 mph - N/A   Clear
2:15 AM 55.4 °F 53.6 °F 94% 29.97 in 10.0 mi Calm Calm - N/A   Clear
2:35 AM 57.2 °F 51.8 °F 82% 29.97 in 10.0 mi NNE 5.8 mph - N/A   Clear
2:55 AM 55.4 °F 51.8 °F 88% 29.97 in 10.0 mi ENE 5.8 mph - N/A   Clear
3:15 AM 55.4 °F 51.8 °F 88% 29.97 in 10.0 mi NNE 4.6 mph - N/A   Clear
3:35 AM 55.4 °F 51.8 °F 88% 29.97 in 10.0 mi NE 3.5 mph - N/A   Clear
3:55 AM 55.4 °F 51.8 °F 88% 29.97 in 10.0 mi NE 3.5 mph - N/A   Partly Cloudy
4:15 AM 53.6 °F 51.8 °F 94% 29.97 in 10.0 mi NE 4.6 mph - N/A   Clear
4:35 AM 55.4 °F 51.8 °F 88% 29.97 in 10.0 mi NNE 3.5 mph - N/A   Clear
4:55 AM 53.6 °F 51.8 °F 94% 29.97 in 10.0 mi Calm Calm - N/A   Clear
5:15 AM 53.6 °F 50.0 °F 88% 29.97 in 10.0 mi Calm Calm - N/A   Clear
5:35 AM 53.6 °F 50.0 °F 88% 29.98 in 9.0 mi Calm Calm - N/A   Clear
5:55 AM 53.6 °F 51.8 °F 94% 29.98 in 10.0 mi Calm Calm - N/A   Clear
6:15 AM 53.6 °F 51.8 °F 94% 29.99 in 7.0 mi Calm Calm - N/A   Clear
6:35 AM 53.6 °F 53.6 °F 100% 29.99 in 6.0 mi Calm Calm - N/A   Clear
6:55 AM 55.4 °F 53.6 °F 94% 30.01 in 8.0 mi ENE 3.5 mph - N/A   Clear
7:15 AM 57.2 °F 53.6 °F 88% 30.01 in 10.0 mi ENE 4.6 mph - N/A   Clear
7:35 AM 59.0 °F 53.6 °F 82% 30.01 in 10.0 mi Calm Calm - N/A   Clear
7:55 AM 60.8 °F 55.4 °F 82% 30.01 in 10.0 mi East 3.5 mph - N/A   Clear
8:15 AM 64.4 °F 57.2 °F 77% 30.01 in 10.0 mi Calm Calm - N/A   Clear
8:35 AM 66.2 °F 57.2 °F 73% 30.02 in 10.0 mi NNW 3.5 mph - N/A   Clear
8:55 AM 69.8 °F 57.2 °F 64% 30.02 in 10.0 mi NNW 4.6 mph - N/A   Clear
9:15 AM 69.8 °F 57.2 °F 64% 30.02 in 10.0 mi NNW 4.6 mph - N/A   Clear
9:35 AM 71.6 °F 57.2 °F 60% 30.02 in 10.0 mi NNW 8.1 mph - N/A   Clear
9:55 AM 73.4 °F 57.2 °F 57% 30.02 in 10.0 mi North 5.8 mph - N/A   Clear
10:15 AM 73.4 °F 57.2 °F 57% 30.01 in 10.0 mi NW 5.8 mph - N/A   Clear
10:35 AM 73.4 °F 55.4 °F 53% 30.01 in 10.0 mi North 6.9 mph - N/A   Clear
10:55 AM 75.2 °F 55.4 °F 50% 30.01 in 10.0 mi NW 6.9 mph - N/A   Clear
11:15 AM 75.2 °F 55.4 °F 50% 30.01 in 10.0 mi NW 8.1 mph - N/A   Partly Cloudy
11:35 AM 73.4 °F 51.8 °F 47% 30.00 in 5.0 mi East 4.6 mph - N/A   Clear
11:55 AM 75.2 °F 51.8 °F 44% 30.00 in 2.0 mi ESE 3.5 mph - N/A   Clear
12:15 PM 77.0 °F 53.6 °F 44% 29.99 in 10.0 mi WNW 8.1 mph - N/A   Partly Cloudy
12:35 PM 78.8 °F 53.6 °F 42% 29.99 in 10.0 mi WNW 3.5 mph - N/A   Scattered Clouds
12:55 PM 77.0 °F 53.6 °F 44% 29.99 in 10.0 mi NNE 4.6 mph - N/A   Mostly Cloudy
1:15 PM 75.2 °F 51.8 °F 44% 29.99 in 10.0 mi Calm Calm - N/A   Mostly Cloudy
1:35 PM 77.0 °F 51.8 °F 41% 29.98 in 10.0 mi WNW 5.8 mph - N/A   Scattered Clouds
1:55 PM 75.2 °F 51.8 °F 44% 29.97 in 10.0 mi East 3.5 mph - N/A   Mostly Cloudy
2:15 PM 75.2 °F 50.0 °F 41% 29.97 in 10.0 mi West 3.5 mph - N/A   Overcast
2:35 PM 77.0 °F 50.0 °F 39% 29.97 in 10.0 mi North 5.8 mph - N/A   Overcast
2:55 PM 77.0 °F 50.0 °F 39% 29.96 in 10.0 mi NNW 5.8 mph - N/A   Overcast
3:35 PM 77.0 °F 51.8 °F 41% 29.96 in 10.0 mi West 5.8 mph - N/A   Scattered Clouds
3:55 PM 73.4 °F 57.2 °F 57% 29.96 in 10.0 mi NNE 9.2 mph - N/A   Overcast
4:15 PM 75.2 °F 53.6 °F 47% 29.95 in 10.0 mi East 4.6 mph - N/A   Scattered Clouds
4:35 PM 78.8 °F 50.0 °F 36% 29.94 in 10.0 mi Calm Calm - N/A   Partly Cloudy
4:55 PM 78.8 °F 55.4 °F 44% 29.94 in 10.0 mi East 8.1 mph - N/A   Clear
5:15 PM 78.8 °F 50.0 °F 36% 29.94 in 10.0 mi Calm Calm - N/A   Clear
5:35 PM 75.2 °F 51.8 °F 44% 29.94 in 10.0 mi NE 6.9 mph - N/A   Partly Cloudy
5:55 PM 75.2 °F 51.8 °F 44% 29.94 in 10.0 mi East 6.9 mph - N/A   Partly Cloudy
6:15 PM 75.2 °F 51.8 °F 44% 29.94 in 10.0 mi East 8.1 mph - N/A   Clear
6:35 PM 73.4 °F 53.6 °F 50% 29.94 in 10.0 mi NE 6.9 mph - N/A   Mostly Cloudy
6:55 PM 69.8 °F 57.2 °F 64% 29.95 in 10.0 mi ENE 8.1 mph - N/A   Overcast
7:15 PM 69.8 °F 53.6 °F 56% 29.95 in 10.0 mi ENE 6.9 mph - N/A   Overcast
7:35 PM 69.8 °F 57.2 °F 64% 29.96 in 9.0 mi ESE 6.9 mph - N/A   Mostly Cloudy
7:55 PM 68.0 °F 55.4 °F 64% 29.96 in 2.5 mi East 8.1 mph - N/A   Mostly Cloudy
8:15 PM 68.0 °F 53.6 °F 60% 29.97 in 3.0 mi East 6.9 mph - N/A   Overcast
8:35 PM 68.0 °F 53.6 °F 60% 29.97 in 10.0 mi East 5.8 mph - N/A   Overcast
8:55 PM 66.2 °F 55.4 °F 68% 29.97 in 10.0 mi SE 5.8 mph - N/A   Overcast
9:15 PM 66.2 °F 55.4 °F 68% 29.98 in 10.0 mi SE 6.9 mph - N/A   Mostly Cloudy
9:35 PM 62.6 °F 55.4 °F 77% 29.99 in 10.0 mi South 8.1 mph - N/A   Partly Cloudy
9:55 PM 62.6 °F 53.6 °F 72% 29.99 in 10.0 mi South 4.6 mph - N/A   Partly Cloudy
10:15 PM 64.4 °F 53.6 °F 68% 29.99 in 10.0 mi Calm Calm - N/A   Clear
10:35 PM 64.4 °F 53.6 °F 68% 29.99 in 9.0 mi South 3.5 mph - N/A   Clear
10:55 PM 64.4 °F 53.6 °F 68% 29.99 in 10.0 mi SW 3.5 mph - N/A   Partly Cloudy
11:15 PM 62.6 °F 53.6 °F 72% 29.99 in 10.0 mi SSW 6.9 mph - N/A   Clear
11:35 PM 60.8 °F 53.6 °F 77% 29.98 in 10.0 mi SSW 6.9 mph - N/A   Clear
11:55 PM 60.8 °F 53.6 °F 77% 29.98 in 10.0 mi SSW 6.9 mph - N/A   Clear